[[{"header":{"parameterUnit":"m.s-1","parameterCategory":1,"la1":30.2991,"la2":30.254,"lo1":-89.0895,"lo2":-89.0444,"dy":0.0017,"dx":0.0017,"nx":28,"ny":28,"refTime":"2025-06-06T21:00:00:Z","depth":0,"parameterNumber":2,"parameterNumberName":"U-component_of_WINDS"},"data":[0,0,0,0,0,0,0,0,0,0,0,0,0,0,0,0,0,0,0,0,0,0,0,0,0,0,0,0,0,0,0,0,0,0,0,0,0,0,0,0,0,0,0,0,0,0,0,0,0,0,0,0,0,0,0,0,0,0,2.8768,2.8769,0,2.8926,2.8928,2.893,2.8991,2.8991,2.899,2.899,2.9153,2.9157,2.9162,0,0,0,0,0,0,0,0,0,0,0,0,0,2.8516,2.8521,2.8767,2.8769,2.8771,2.8926,2.8928,2.893,2.8991,2.8991,2.899,2.899,2.9151,2.9157,2.9162,0,0,0,0,0,0,0,0,0,0,0,0,0,2.8645,2.8522,2.8767,2.882,2.8827,2.8925,2.8928,2.8931,2.8991,2.8991,2.899,2.8989,2.9149,2.9156,2.9163,2.922,0,0,2.9185,2.9188,0,0,0,0,0,0,0,0,2.8638,2.8654,2.8811,2.8817,2.8824,2.8938,2.8899,2.9028,2.8992,2.8929,2.899,2.8989,2.9082,2.9094,2.9126,2.9228,2.9235,2.9185,2.919,2.9193,2.9195,0,0,0,0,0,0,0,2.8629,2.8648,2.883,2.8813,2.8821,2.8836,2.8854,2.8924,2.9007,2.8934,2.8939,2.8957,2.9085,2.9119,2.913,2.9237,2.9185,2.9192,2.9196,2.9199,2.9394,2.9394,0,0,0,0,0,0,2.8611,2.864,2.8825,2.8835,2.8727,2.8841,2.8861,2.8902,2.9007,2.9022,2.8957,2.8959,2.9107,2.9122,2.9136,2.921,2.9193,2.9199,2.9204,2.9393,2.9394,2.9395,0,0,0,0,0,0,2.8605,2.8627,2.8819,2.8739,2.8764,2.8846,2.8892,2.8906,2.8939,2.9024,2.9039,2.8976,2.9107,2.9126,2.9199,2.9216,2.9203,2.9209,2.9392,2.9393,2.9394,2.9358,0,0,0,0,0,0,2.8598,2.8625,2.8648,2.8739,2.8768,2.8879,2.8893,2.8909,2.8951,2.8955,2.9046,2.906,2.9108,2.9188,2.9206,2.9226,2.9215,2.939,2.9392,2.9394,2.9358,2.9358,2.9358,0,0,0,0,0,2.8589,2.8631,2.8648,2.867,2.8799,2.888,2.8897,2.8951,2.8952,2.8976,2.903,2.9057,2.9211,2.9195,2.9215,2.9238,2.939,2.9392,2.9394,2.9358,2.9358,2.9358,0,0,0,0,0,0,2.854,2.8644,2.8665,2.8738,2.8799,2.889,2.8922,2.8949,2.9012,2.9013,2.9077,2.9097,2.9165,2.9209,2.9189,2.9298,2.9302,2.9308,2.9268,2.9268,2.9268,2.9257,2.9221,0,0,0,0,0,2.8538,2.8595,2.8683,2.8739,2.8769,2.884,2.8877,2.8913,2.898,2.9007,2.9066,2.913,2.9192,2.9233,2.9295,2.9364,2.9384,2.9389,2.9389,2.9388,2.9394,2.9433,2.9436,2.9401,2.9401,2.9401,0,0,2.8534,2.8598,2.8631,2.8731,2.8783,2.8841,2.8862,2.8922,2.8966,2.9016,2.9089,2.9134,2.9209,2.928,2.9314,2.9318,2.9407,2.9391,2.939,2.9396,2.9435,2.9438,2.9441,2.9403,2.9403,2.9402,0,0,2.8557,2.8611,2.8664,2.8715,2.8793,2.884,2.8852,2.8939,2.8971,2.9044,2.9083,2.9135,2.9242,2.9294,2.9334,2.9374,2.9401,2.9392,2.9392,2.943,2.9433,2.9435,2.945,2.9454,2.9397,2.9397,2.9397,0,2.8543,2.8632,2.8687,2.8746,2.8788,2.8835,2.8889,2.8936,2.9031,2.9059,2.9062,2.9196,2.925,2.9334,2.9343,2.9374,2.939,2.9383,2.9428,2.9431,2.9434,2.9449,2.9454,2.9395,2.9395,2.9395,2.9396,0,2.861,2.8671,2.8704,2.8794,2.884,2.8895,2.8959,2.8999,2.903,2.9076,2.9149,2.9215,2.9292,2.9314,2.9345,2.9401,2.9402,2.9415,2.9421,2.9435,2.945,2.9456,2.9393,2.9394,2.9394,2.9394,0,0,2.8609,2.8728,2.8739,2.878,2.8869,2.8917,2.8973,2.9048,2.9081,2.9144,2.9193,2.9281,2.9294,2.9339,2.9377,2.9409,2.9437,2.9419,2.9422,2.9421,2.9503,2.9493,2.9498,2.9454,2.9456,2.9457,2.9496,0,2.8645,2.8749,2.88,2.8882,2.8939,2.8983,2.9032,2.9092,2.9136,2.919,2.9238,2.9299,2.9311,2.9339,2.9373,2.9426,2.9454,2.9424,2.9501,2.9503,2.9482,2.9506,2.9496,2.9531,2.9503,2.9504,2.9504,0,2.8701,2.8763,2.885,2.8932,2.8957,2.9001,2.9073,2.9123,2.9191,2.9221,2.927,2.9306,2.9367,2.9367,2.9452,2.943,2.9464,2.9494,2.9497,2.9507,2.9506,2.9518,2.9543,2.9548,2.9514,2.9513,2.9513,0,2.8692,2.8797,2.8864,2.8897,2.8993,2.9023,2.9064,2.9131,2.9172,2.9234,2.9261,2.9329,2.9367,2.9419,2.9472,2.9466,2.9551,2.9555,2.9578,2.9576,2.9595,2.9594,2.9627,2.9615,2.9615,2.9615,2.9615,0,2.8727,2.8779,2.8861,2.8901,2.8961,2.9017,2.9074,2.9119,2.9178,2.9228,2.927,2.9315,2.9382,2.9436,2.9478,2.9542,2.9558,2.9583,2.9594,2.9581,2.9577,2.9605,2.9604,2.9616,2.9616,2.9616,2.9615,0,2.8728,2.8785,2.886,2.8944,2.8966,2.9006,2.9078,2.9119,2.9164,2.9226,2.9244,2.9315,2.938,2.9438,2.9524,2.9552,2.9618,2.963,2.9595,2.9601,2.962,2.9618,2.9674,2.9684,2.9664,2.9664,2.9664,0,2.8748,2.8789,2.8877,2.8913,2.8953,2.9011,2.9053,2.911,2.9151,2.9231,2.9262,2.933,2.9388,2.949,2.9549,2.9615,2.9631,2.9645,2.9641,2.9626,2.9632,2.9629,2.9633,2.9646,2.9646,2.9646,2.9645,0,2.8776,2.8801,2.886,2.8928,2.8976,2.9032,2.909,2.9117,2.9184,2.9229,2.9296,2.9341,2.9428,2.9496,2.9568,2.9611,2.9639,2.9646,2.9655,2.9642,2.962,2.9633,2.9596,2.9645,2.9645,2.9645,2.9645,2.9645,2.8788,2.8826,2.8893,2.8957,2.9006,2.9058,2.91,2.915,2.9207,2.9283,2.9312,2.9381,2.9446,2.9546,2.9588,2.9642,2.9647,2.966,2.9663,2.9666,2.9664,2.961,2.9656,2.9656,2.9656,2.9656,2.9656,0,2.8819,2.8864,2.8921,2.9,2.9049,2.9071,2.9135,2.9175,2.9235,2.9293,2.9349,2.9426,2.9491,2.9554,2.9622,2.9653,2.9668,2.9669,2.9668,2.9677,2.9655,2.9641,2.9656,2.9656,2.9656,2.9656,2.9656,2.9656,2.8841,2.8906,2.8939,2.9029,2.9074,2.9141,2.9176,2.9224,2.9271,2.9355,2.9409,2.9449,2.9509,2.9582,2.9642,2.9659,2.9683,2.968,2.9701,2.9679,2.9679,2.9678,2.9665,2.9685,2.9685,2.9718,2.9719,2.9719]},{"header":{"parameterUnit":"m.s-1","parameterCategory":1,"la1":30.2991,"la2":30.254,"lo1":-89.0895,"lo2":-89.0444,"dy":0.0017,"dx":0.0017,"nx":28,"ny":28,"refTime":"2025-06-06T21:00:00:Z","depth":0,"parameterNumber":3,"parameterNumberName":"V-component_of_WINDS"},"data":[0,0,0,0,0,0,0,0,0,0,0,0,0,0,0,0,0,0,0,0,0,0,0,0,0,0,0,0,0,0,0,0,0,0,0,0,0,0,0,0,0,0,0,0,0,0,0,0,0,0,0,0,0,0,0,0,0,0,1.7794,1.7794,0,1.785,1.7851,1.7852,1.7871,1.7871,1.7871,1.7871,1.7926,1.7927,1.7929,0,0,0,0,0,0,0,0,0,0,0,0,0,1.7699,1.7701,1.7794,1.7795,1.7795,1.785,1.7851,1.7852,1.7871,1.7871,1.7871,1.787,1.7925,1.7927,1.7929,0,0,0,0,0,0,0,0,0,0,0,0,0,1.7746,1.7701,1.7794,1.7812,1.7814,1.785,1.7851,1.7852,1.7871,1.7871,1.7871,1.787,1.7924,1.7927,1.7929,1.7951,0,0,1.7937,1.7938,0,0,0,0,0,0,0,0,1.7744,1.775,1.7808,1.781,1.7813,1.7854,1.7838,1.7885,1.7871,1.7849,1.7871,1.787,1.7902,1.7906,1.7917,1.7954,1.7956,1.7937,1.7939,1.794,1.794,0,0,0,0,0,0,0,1.774,1.7748,1.7816,1.7809,1.7812,1.7816,1.7822,1.7847,1.7876,1.7851,1.7853,1.7859,1.7903,1.7915,1.7919,1.7957,1.7937,1.7939,1.7941,1.7942,1.8013,1.8014,0,0,0,0,0,0,1.7735,1.7745,1.7814,1.7818,1.7777,1.7818,1.7825,1.7841,1.7876,1.7881,1.786,1.786,1.7911,1.7916,1.7921,1.7948,1.794,1.7942,1.7943,1.8013,1.8013,1.8014,0,0,0,0,0,0,1.7732,1.7741,1.7812,1.7782,1.7791,1.782,1.7837,1.7842,1.7854,1.7883,1.7888,1.7867,1.7911,1.7917,1.7943,1.7951,1.7943,1.7945,1.8013,1.8013,1.8014,1.8004,0,0,0,0,0,0,1.773,1.774,1.7749,1.7782,1.7793,1.7835,1.7838,1.7843,1.7859,1.786,1.7891,1.7895,1.7911,1.794,1.7946,1.7954,1.7947,1.8012,1.8013,1.8014,1.8004,1.8004,1.8005,0,0,0,0,0,1.7726,1.7744,1.775,1.7758,1.7805,1.7835,1.7841,1.786,1.7859,1.7868,1.7887,1.7894,1.7949,1.7942,1.7949,1.7958,1.8012,1.8013,1.8013,1.8004,1.8004,1.8005,0,0,0,0,0,0,1.771,1.7748,1.7755,1.7784,1.7806,1.7839,1.7851,1.786,1.7882,1.7882,1.7903,1.791,1.7934,1.7949,1.7941,1.7981,1.798,1.7983,1.7971,1.7971,1.7972,1.7968,1.7949,0,0,0,0,0,1.771,1.7732,1.7764,1.7786,1.7797,1.7822,1.7836,1.7848,1.7872,1.7881,1.7901,1.7923,1.7945,1.7959,1.7981,1.8006,1.8013,1.8016,1.8016,1.8016,1.8018,1.8032,1.8033,1.8017,1.8017,1.8017,0,0,1.771,1.7734,1.7746,1.7784,1.7802,1.7824,1.783,1.7852,1.7868,1.7884,1.7911,1.7926,1.7951,1.7977,1.799,1.799,1.8024,1.8017,1.8017,1.8019,1.8033,1.8034,1.8036,1.8018,1.8017,1.8017,0,0,1.7721,1.7741,1.7762,1.7781,1.7809,1.7826,1.783,1.7861,1.7873,1.79,1.7912,1.793,1.7968,1.7985,1.7999,1.8016,1.8024,1.8022,1.8024,1.8038,1.8039,1.804,1.8046,1.8048,1.8024,1.8024,1.8024,0,1.7717,1.7751,1.7771,1.7793,1.7809,1.7825,1.7845,1.7862,1.7896,1.7906,1.7906,1.7954,1.7972,1.8002,1.8006,1.8017,1.8023,1.8019,1.8038,1.8039,1.804,1.8046,1.8048,1.8024,1.8024,1.8024,1.8024,0,1.7744,1.7768,1.7781,1.7814,1.7831,1.7852,1.7875,1.7889,1.79,1.7916,1.7942,1.7965,1.7991,1.7999,1.801,1.8031,1.803,1.8034,1.8034,1.8041,1.8047,1.8049,1.8023,1.8023,1.8024,1.8024,0,0,1.7747,1.7791,1.7796,1.7811,1.7843,1.7861,1.7883,1.7909,1.7921,1.7944,1.7962,1.7993,1.7997,1.8012,1.8024,1.8036,1.8048,1.8038,1.8039,1.8039,1.8072,1.8069,1.8071,1.8053,1.8053,1.8054,1.8069,0,1.7762,1.7803,1.7821,1.7852,1.7874,1.7889,1.7907,1.7929,1.7944,1.7963,1.7979,1.8001,1.8004,1.8014,1.8026,1.8044,1.8054,1.8043,1.8069,1.807,1.8062,1.8074,1.8072,1.8085,1.8072,1.8072,1.8073,0,1.7785,1.7809,1.7843,1.7873,1.7882,1.7899,1.7924,1.7943,1.7967,1.7977,1.7995,1.8006,1.8028,1.8026,1.8056,1.8048,1.806,1.807,1.8071,1.8074,1.8072,1.8078,1.809,1.8092,1.8076,1.8076,1.8076,0,1.7784,1.7824,1.7849,1.7862,1.7897,1.7908,1.7923,1.7947,1.7962,1.7984,1.7993,1.8017,1.803,1.8048,1.8065,1.8063,1.8093,1.8093,1.8102,1.8101,1.8108,1.8107,1.8122,1.8115,1.8115,1.8115,1.8115,0,1.7799,1.7819,1.7849,1.7865,1.7887,1.7907,1.7929,1.7945,1.7966,1.7984,1.7998,1.8014,1.8036,1.8055,1.8069,1.8091,1.8097,1.8105,1.8108,1.8104,1.8103,1.8112,1.8111,1.8116,1.8116,1.8115,1.8115,0,1.7801,1.7822,1.7851,1.7882,1.789,1.7905,1.7932,1.7947,1.7962,1.7985,1.7992,1.8016,1.8039,1.8058,1.8088,1.8097,1.812,1.8124,1.8112,1.8114,1.8122,1.8121,1.8143,1.8147,1.8137,1.8137,1.8137,0,1.7809,1.7825,1.7858,1.7872,1.7887,1.7909,1.7924,1.7944,1.7959,1.7988,1.7999,1.8023,1.8044,1.808,1.8099,1.8122,1.8127,1.8133,1.813,1.8125,1.8127,1.8125,1.8127,1.8133,1.8133,1.8133,1.8133,0,1.7821,1.7831,1.7853,1.7879,1.7897,1.7918,1.7939,1.7949,1.7973,1.7989,1.8014,1.8029,1.806,1.8084,1.8109,1.8123,1.8132,1.8134,1.8137,1.8133,1.8125,1.8129,1.8113,1.8133,1.8133,1.8133,1.8133,1.8133,1.7827,1.7842,1.7867,1.7891,1.791,1.7929,1.7945,1.7963,1.7984,1.8011,1.8021,1.8046,1.8069,1.8103,1.8117,1.8136,1.8137,1.8142,1.8143,1.8144,1.8143,1.8122,1.8141,1.8141,1.8141,1.8141,1.8141,0,1.784,1.7857,1.7879,1.7909,1.7927,1.7935,1.7959,1.7973,1.7995,1.8016,1.8036,1.8064,1.8087,1.8108,1.8132,1.8142,1.8147,1.8148,1.8147,1.815,1.8141,1.8136,1.8144,1.8144,1.8144,1.8144,1.8144,1.8144,1.7849,1.7874,1.7887,1.7921,1.7938,1.7963,1.7976,1.7993,1.801,1.8041,1.806,1.8074,1.8095,1.812,1.8141,1.8147,1.8154,1.8154,1.8161,1.8152,1.8151,1.8151,1.8146,1.8156,1.8156,1.8169,1.8169,1.8169]}]]